| time (UTC) | temp F | wind direction | speed MPH | gust MPH | rain 1hr in | rain 24hr in | rain mn in | humidity % | barometer mb |
| 20260508024621 | 50 | 336 | 2.0 | 4.0 | 0.01 | 0.01 | 0.01 | 83 | 1016.1 |
| 20260508023059 | 50 | 65 | 0.0 | 1.0 | 0.00 | 0.00 | 0.00 | 83 | 1016.2 |
| 20260508021600 | 50 | 355 | 1.0 | 3.0 | 0.00 | 0.00 | 0.00 | 82 | 1016.2 |
| 20260508020111 | 50 | 360 | 1.0 | 6.0 | 0.00 | 0.00 | 0.00 | 83 | 1016.1 |
| 20260508020001 | 50 | 11 | 0.0 | 6.0 | 0.00 | 0.00 | 0.00 | 83 | 1016.1 |
| 20260508014623 | 50 | 23 | 3.0 | 5.0 | 0.00 | 0.00 | 0.00 | 83 | 1016.2 |
| 20260508013108 | 50 | 22 | 1.0 | 4.0 | 0.00 | 0.00 | 0.00 | 83 | 1016.2 |
| 20260508011605 | 51 | 341 | 1.0 | 4.0 | 0.00 | 0.00 | 0.00 | 82 | 1016.2 |
| 20260508010115 | 51 | 325 | 1.0 | 3.0 | 0.00 | 0.00 | 0.00 | 80 | 1016.2 |
| 20260508010001 | 51 | 315 | 1.0 | 3.0 | 0.00 | 0.00 | 0.00 | 80 | 1016.2 |
| 20260508004600 | 51 | 212 | 0.0 | 3.0 | 0.00 | 0.00 | 0.00 | 78 | 1016.3 |
| 20260508003100 | 51 | 157 | 1.0 | 6.0 | 0.00 | 0.00 | 0.00 | 78 | 1016.4 |
| 20260508001604 | 51 | 340 | 1.0 | 4.0 | 0.00 | 0.00 | 0.00 | 79 | 1016.4 |
| 20260508000006 | 51 | 42 | 0.0 | 4.0 | 0.00 | 0.00 | 0.00 | 79 | 1016.5 |
| 20260507234504 | 51 | 344 | 0.0 | 3.0 | 0.00 | 0.00 | 0.00 | 78 | 1016.4 |
| 20260507233005 | 51 | 338 | 2.0 | 5.0 | 0.00 | 0.00 | 0.00 | 78 | 1016.4 |
| 20260507231505 | 52 | 346 | 2.0 | 6.0 | 0.00 | 0.00 | 0.00 | 77 | 1016.5 |
| 20260507230020 | 52 | 294 | 2.0 | 4.0 | 0.00 | 0.00 | 0.00 | 77 | 1016.6 |
| 20260507224503 | 51 | 338 | 1.0 | 3.0 | 0.00 | 0.00 | 0.00 | 76 | 1016.5 |
| 20260507223002 | 52 | 324 | 1.0 | 3.0 | 0.00 | 0.00 | 0.00 | 75 | 1016.4 |
| 20260507221502 | 52 | 344 | 0.0 | 2.0 | 0.00 | 0.00 | 0.00 | 75 | 1016.3 |
| 20260507220004 | 53 | 344 | 0.0 | 3.0 | 0.00 | 0.00 | 0.00 | 75 | 1016.3 |
| 20260507214502 | 53 | 42 | 0.0 | 2.0 | 0.00 | 0.00 | 0.00 | 74 | 1016.3 |
| 20260507213003 | 53 | 63 | 1.0 | 3.0 | 0.00 | 0.00 | 0.00 | 74 | 1016.4 |
| 20260507211506 | 53 | 93 | 0.0 | 1.0 | 0.00 | 0.00 | 0.00 | 74 | 1016.4 |
| 20260507210005 | 53 | 151 | 0.0 | 2.0 | 0.00 | 0.00 | 0.00 | 74 | 1016.3 |
| 20260507204502 | 53 | 126 | 0.0 | 1.0 | 0.00 | 0.00 | 0.00 | 74 | 1016.1 |
| 20260507203002 | 53 | 126 | 0.0 | 1.0 | 0.00 | 0.00 | 0.00 | 74 | 1016.0 |
| 20260507201504 | 54 | 126 | 0.0 | 2.0 | 0.00 | 0.00 | 0.00 | 73 | 1015.8 |
| 20260507200003 | 54 | 79 | 0.0 | 1.0 | 0.00 | 0.00 | 0.00 | 73 | 1015.7 |
| 20260507194500 | 54 | 79 | 0.0 | 3.0 | 0.00 | 0.00 | 0.00 | 72 | 1015.7 |
| 20260507193001 | 55 | 128 | 0.0 | 2.0 | 0.00 | 0.00 | 0.00 | 71 | 1015.6 |
| 20260507191501 | 56 | 42 | 1.0 | 3.0 | 0.00 | 0.00 | 0.00 | 70 | 1015.7 |
| 20260507190004 | 57 | 165 | 0.0 | 3.0 | 0.00 | 0.00 | 0.00 | 67 | 1015.7 |
| 20260507184501 | 57 | 176 | 0.0 | 2.0 | 0.00 | 0.00 | 0.00 | 65 | 1015.6 |
| 20260507183001 | 58 | 213 | 1.0 | 5.0 | 0.00 | 0.00 | 0.00 | 65 | 1015.6 |
| 20260507181501 | 57 | 144 | 1.0 | 3.0 | 0.00 | 0.00 | 0.00 | 66 | 1015.7 |
| 20260507180004 | 56 | 130 | 2.0 | 5.0 | 0.00 | 0.00 | 0.00 | 67 | 1015.7 |
| 20260507174503 | 55 | 105 | 2.0 | 7.0 | 0.00 | 0.00 | 0.00 | 70 | 1015.7 |
| 20260507173001 | 55 | 171 | 3.0 | 9.0 | 0.00 | 0.00 | 0.00 | 71 | 1015.8 |
| 20260507171503 | 55 | 137 | 3.0 | 7.0 | 0.00 | 0.00 | 0.00 | 72 | 1015.8 |
| 20260507170011 | 55 | 152 | 3.0 | 10.0 | 0.00 | 0.00 | 0.00 | 71 | 1015.9 |
| 20260507164501 | 56 | 161 | 6.0 | 10.0 | 0.00 | 0.00 | 0.00 | 71 | 1015.8 |
| 20260507163000 | 57 | 136 | 7.0 | 10.0 | 0.00 | 0.00 | 0.00 | 70 | 1015.8 |
| 20260507161502 | 57 | 162 | 5.0 | 12.0 | 0.00 | 0.00 | 0.00 | 69 | 1015.7 |
| 20260507160003 | 58 | 154 | 5.0 | 11.0 | 0.00 | 0.00 | 0.00 | 67 | 1015.7 |
| 20260507154501 | 59 | 146 | 6.0 | 12.0 | 0.00 | 0.00 | 0.00 | 64 | 1015.8 |
| 20260507153001 | 59 | 157 | 5.0 | 9.0 | 0.00 | 0.00 | 0.00 | 60 | 1015.8 |
| 20260507151501 | 59 | 242 | 4.0 | 8.0 | 0.00 | 0.00 | 0.00 | 61 | 1015.8 |
| 20260507150003 | 60 | 170 | 3.0 | 9.0 | 0.00 | 0.00 | 0.00 | 59 | 1015.9 |
| 20260507144501 | 61 | 158 | 5.0 | 9.0 | 0.00 | 0.00 | 0.00 | 57 | 1016.0 |
| 20260507143001 | 61 | 157 | 5.0 | 8.0 | 0.00 | 0.00 | 0.00 | 56 | 1016.0 |
| 20260507141502 | 60 | 99 | 2.0 | 7.0 | 0.00 | 0.00 | 0.00 | 59 | 1016.0 |
| 20260507140006 | 59 | 156 | 3.0 | 7.0 | 0.00 | 0.00 | 0.00 | 61 | 1016.2 |
| 20260507134501 | 57 | 167 | 2.0 | 7.0 | 0.00 | 0.00 | 0.00 | 65 | 1016.2 |
| 20260507133001 | 57 | 166 | 3.0 | 7.0 | 0.00 | 0.00 | 0.00 | 68 | 1016.3 |
| 20260507131501 | 57 | 151 | 3.0 | 8.0 | 0.00 | 0.00 | 0.00 | 66 | 1016.5 |
| 20260507130002 | 58 | 159 | 3.0 | 8.0 | 0.00 | 0.00 | 0.00 | 67 | 1016.4 |
| 20260507124500 | 58 | 165 | 3.0 | 9.0 | 0.00 | 0.00 | 0.00 | 66 | 1016.4 |
| 20260507123001 | 58 | 199 | 3.0 | 10.0 | 0.00 | 0.00 | 0.00 | 66 | 1016.4 |
| 20260507121501 | 58 | 167 | 3.0 | 10.0 | 0.00 | 0.00 | 0.00 | 66 | 1016.4 |
| 20260507120003 | 59 | 190 | 4.0 | 10.0 | 0.00 | 0.00 | 0.00 | 65 | 1016.4 |
| 20260507114500 | 60 | 185 | 6.0 | 16.0 | 0.00 | 0.00 | 0.00 | 60 | 1016.3 |
| 20260507113000 | 60 | 161 | 6.0 | 12.0 | 0.00 | 0.00 | 0.00 | 60 | 1016.2 |
| 20260507111500 | 60 | 188 | 8.0 | 12.0 | 0.00 | 0.00 | 0.00 | 62 | 1016.3 |
| 20260507110003 | 60 | 148 | 6.0 | 14.0 | 0.00 | 0.00 | 0.00 | 61 | 1016.3 |
| 20260507104508 | 60 | 148 | 9.0 | 15.0 | 0.00 | 0.00 | 0.00 | 61 | 1016.4 |
| 20260507103002 | 60 | 173 | 6.0 | 15.0 | 0.00 | 0.00 | 0.00 | 60 | 1016.4 |
| 20260507101503 | 59 | 195 | 5.0 | 16.0 | 0.00 | 0.00 | 0.00 | 62 | 1016.4 |
| 20260507100002 | 58 | 155 | 7.0 | 17.0 | 0.00 | 0.00 | 0.00 | 61 | 1016.3 |
| 20260507094603 | 58 | 204 | 7.0 | 14.0 | 0.00 | 0.00 | 0.00 | 64 | 1016.3 |
| 20260507094503 | 58 | 177 | 7.0 | 14.0 | 0.00 | 0.00 | 0.00 | 63 | 1016.2 |
| 20260507093103 | 58 | 148 | 3.0 | 13.0 | 0.00 | 0.00 | 0.00 | 64 | 1016.3 |
| 20260507091600 | 59 | 165 | 4.0 | 11.0 | 0.00 | 0.00 | 0.00 | 64 | 1016.2 |
| 20260507090002 | 58 | 156 | 9.0 | 15.0 | 0.00 | 0.00 | 0.00 | 62 | 1016.2 |
| 20260507084607 | 58 | 125 | 3.0 | 10.0 | 0.00 | 0.00 | 0.00 | 63 | 1016.1 |
| 20260507083100 | 58 | 163 | 6.0 | 12.0 | 0.00 | 0.00 | 0.00 | 63 | 1016.0 |
| 20260507081601 | 55 | 178 | 4.0 | 11.0 | 0.00 | 0.00 | 0.00 | 69 | 1016.1 |
| 20260507080100 | 54 | 129 | 3.0 | 9.0 | 0.00 | 0.00 | 0.00 | 70 | 1016.1 |
| 20260507080003 | 54 | 90 | 3.0 | 9.0 | 0.00 | 0.00 | 0.00 | 70 | 1016.1 |
| 20260507074608 | 53 | 117 | 3.0 | 8.0 | 0.00 | 0.00 | 0.00 | 71 | 1015.8 |
| 20260507073102 | 53 | 355 | 3.0 | 9.0 | 0.00 | 0.00 | 0.00 | 72 | 1016.0 |
| 20260507071607 | 52 | 120 | 2.0 | 8.0 | 0.00 | 0.00 | 0.00 | 72 | 1015.9 |
| 20260507070108 | 51 | 180 | 3.0 | 9.0 | 0.00 | 0.00 | 0.00 | 72 | 1015.7 |
| 20260507070004 | 51 | 130 | 2.0 | 7.0 | 0.00 | 0.00 | 0.00 | 72 | 1015.7 |
| 20260507064601 | 51 | 178 | 2.0 | 7.0 | 0.00 | 0.00 | 0.00 | 73 | 1015.8 |
| 20260507063100 | 51 | 71 | 1.0 | 5.0 | 0.00 | 0.00 | 0.00 | 72 | 1015.9 |
| 20260507061600 | 50 | 34 | 2.0 | 5.0 | 0.00 | 0.00 | 0.00 | 73 | 1015.9 |
| 20260507060104 | 50 | 309 | 1.0 | 6.0 | 0.00 | 0.00 | 0.00 | 73 | 1015.7 |
| 20260507060002 | 50 | 323 | 0.0 | 6.0 | 0.00 | 0.00 | 0.00 | 72 | 1015.7 |
| 20260507054615 | 50 | 26 | 3.0 | 6.0 | 0.00 | 0.00 | 0.00 | 72 | 1015.7 |
| 20260507053108 | 50 | 75 | 2.0 | 8.0 | 0.00 | 0.00 | 0.00 | 72 | 1015.5 |
| 20260507051601 | 50 | 11 | 1.0 | 9.0 | 0.00 | 0.00 | 0.00 | 72 | 1015.5 |
| 20260507050009 | 50 | 324 | 1.0 | 8.0 | 0.00 | 0.00 | 0.00 | 72 | 1015.4 |
| 20260507044606 | 50 | 146 | 2.0 | 7.0 | 0.00 | 0.00 | 0.00 | 72 | 1015.4 |
| 20260507043101 | 51 | 176 | 3.0 | 8.0 | 0.00 | 0.00 | 0.00 | 72 | 1015.4 |
| 20260507041609 | 51 | 163 | 3.0 | 8.0 | 0.00 | 0.00 | 0.00 | 72 | 1015.4 |
| 20260507040100 | 51 | 156 | 2.0 | 8.0 | 0.00 | 0.00 | 0.00 | 72 | 1015.4 |
| 20260507040003 | 51 | 150 | 2.0 | 8.0 | 0.00 | 0.00 | 0.00 | 72 | 1015.4 |
| 20260507034609 | 51 | 130 | 3.0 | 9.0 | 0.00 | 0.00 | 0.00 | 72 | 1015.4 |
| 20260507033100 | 51 | 119 | 1.0 | 8.0 | 0.00 | 0.00 | 0.00 | 72 | 1015.4 |
| 20260507031601 | 51 | 86 | 1.0 | 8.0 | 0.00 | 0.00 | 0.00 | 71 | 1015.4 |
| 20260507030105 | 50 | 169 | 0.0 | 8.0 | 0.00 | 0.00 | 0.00 | 72 | 1015.4 |
| 20260507030002 | 50 | 136 | 1.0 | 8.0 | 0.00 | 0.00 | 0.00 | 72 | 1015.4 |